Stanton, MN

4:08 PM CDT on June 25, 2017 (GMT -0500)
Stanton

Weather History for KSYN - October, 2011

Change the Weather History Date:

Sunday, October 23, 2011

  Actual Average (KLVN) Record (KLVN)
Temperature  
Mean Temperature 50 °F -  
Max Temperature 61 °F 56 °F 80 °F (1963)
Min Temperature 39 °F 38 °F 14 °F (1981)
Degree Days  
Heating Degree Days 15    
Moisture  
Dew Point 40 °F    
Average Humidity 68    
Maximum Humidity 89    
Minimum Humidity 51    
Precipitation  
Precipitation 0.02 in - - ()
Sea Level Pressure  
Sea Level Pressure 29.85 in    
Wind  
Wind Speed 6 mph (SW)    
Max Wind Speed 15 mph    
Max Gust Speed 17 mph    
Visibility 10 miles    
Events Rain    
Averages and records for this station are not official NWS values.
T = Trace of Precipitation, MM = Missing Value Source: NWS Daily Summary

Daily Weather History Graph

Daily Weather History Graph

Search for Another Location

Airport or City:

Trip Planner

Search our weather history database for the weather conditions in past years. The results will help you decide how hot, cold, wet, or windy it might be!

Date:

Astronomy

Oct. 23, 2011 Rise Set
Actual Time 7:37 AM CDT 6:14 PM CDT
Civil Twilight 7:07 AM CDT 6:44 PM CDT
Nautical Twilight 6:33 AM CDT 7:18 PM CDT
Astronomical Twilight 5:59 AM CDT 7:52 PM CDT
Moon 3:36 AM CDT (10/23) 4:12 PM CDT (10/23)
Length of Visible Light 11h 37m
Length of Day
10h 37m
Waning Crescent, 14% of the Moon is Illuminated
Oct 23
Waning Crescent
Oct 26
New
Nov 2
First Quarter
Nov 10
Full
Nov 18
Last Quarter

Hourly Weather History & Observations

Time (CDT) Temp. Windchill Dew Point Humidity Pressure Visibility Wind Dir Wind Speed Gust Speed Precip Events Conditions
12:13 AM 39.2 °F - 30.9 °F 72% 29.95 in 10.0 mi Calm Calm - N/A   Overcast
12:34 AM 42.6 °F - 32.7 °F 68% 29.95 in 10.0 mi Calm Calm - N/A   Mostly Cloudy
12:53 AM 41.5 °F - 32.4 °F 70% 29.94 in 10.0 mi Calm Calm - N/A   Mostly Cloudy
1:13 AM 42.3 °F - 32.0 °F 67% 29.94 in 10.0 mi Calm Calm - N/A   Scattered Clouds
1:34 AM 40.5 °F 37.3 °F 31.8 °F 71% 29.93 in 10.0 mi SSW 4.6 mph - N/A   Clear
1:54 AM 40.3 °F 37.1 °F 32.0 °F 72% 29.93 in 10.0 mi South 4.6 mph - N/A   Scattered Clouds
2:34 AM 44.6 °F 42.2 °F 32.9 °F 64% 29.93 in 10.0 mi SSW 4.6 mph - N/A   Overcast
2:53 AM 45.1 °F 42.8 °F 32.5 °F 61% 29.92 in 10.0 mi South 4.6 mph - N/A   Overcast
3:13 AM 45.5 °F 41.3 °F 33.4 °F 63% 29.91 in 10.0 mi South 8.1 mph - N/A   Mostly Cloudy
3:34 AM 46.4 °F 43.5 °F 33.1 °F 60% 29.91 in 10.0 mi South 5.8 mph - N/A   Mostly Cloudy
3:54 AM 48.4 °F - 33.1 °F 56% 29.90 in 10.0 mi South 6.9 mph - N/A   Mostly Cloudy
4:13 AM 49.1 °F - 33.3 °F 54% 29.90 in 10.0 mi South 8.1 mph - N/A Rain Light Rain
4:34 AM 49.1 °F - 33.8 °F 56% 29.90 in 10.0 mi South 5.8 mph - N/A Rain Light Rain
4:54 AM 48.6 °F - 34.2 °F 58% 29.89 in 10.0 mi South 6.9 mph - N/A   Light Drizzle
5:13 AM 48.9 °F - 34.0 °F 56% 29.89 in 10.0 mi SSW 4.6 mph - N/A Rain Light Rain
5:34 AM 47.1 °F - 37.4 °F 69% 29.89 in 7.0 mi South 8.1 mph - N/A Rain Heavy Rain
5:54 AM 45.7 °F 42.7 °F 38.3 °F 75% 29.88 in 10.0 mi South 5.8 mph - 0.01 in Rain Rain
5:59 AM 45.5 °F 41.3 °F 38.3 °F 76% 29.88 in 10.0 mi South 8.1 mph - 0.01 in Rain Rain
6:13 AM 45.9 °F 41.2 °F 37.9 °F 74% 29.87 in 10.0 mi South 9.2 mph - N/A   Mostly Cloudy
6:34 AM 46.8 °F - 37.9 °F 71% 29.86 in 10.0 mi South 10.4 mph - N/A   Mostly Cloudy
6:54 AM 46.6 °F - 38.3 °F 73% 29.84 in 10.0 mi South 12.7 mph - N/A   Mostly Cloudy
7:13 AM 46.6 °F - 39.2 °F 75% 29.83 in 10.0 mi South 10.4 mph 17.3 mph N/A   Scattered Clouds
7:34 AM 46.4 °F 43.5 °F 39.6 °F 77% 29.84 in 10.0 mi SSW 5.8 mph - N/A   Scattered Clouds
7:54 AM 45.7 °F 42.7 °F 39.7 °F 80% 29.85 in 10.0 mi SSW 5.8 mph - N/A   Clear
8:13 AM 45.1 °F 43.7 °F 40.1 °F 82% 29.85 in 10.0 mi South 3.5 mph - N/A   Scattered Clouds
8:34 AM 45.9 °F 44.6 °F 40.5 °F 81% 29.85 in 10.0 mi SSW 3.5 mph - N/A   Clear
8:53 AM 46.8 °F - 41.2 °F 81% 29.85 in 10.0 mi SSW 4.6 mph - N/A   Clear
9:14 AM 50.5 °F - 43.7 °F 77% 29.84 in 10.0 mi SSW 12.7 mph - N/A   Clear
9:53 AM 53.1 °F - 45.3 °F 75% 29.83 in 10.0 mi SSW 11.5 mph - N/A   Clear
10:14 AM 54.5 °F - 45.7 °F 72% 29.83 in 10.0 mi SW 12.7 mph - N/A   Clear
10:34 AM 54.0 °F - 45.3 °F 73% 29.82 in 10.0 mi SW 12.7 mph - N/A   Clear
10:53 AM 54.5 °F - 45.5 °F 72% 29.81 in 10.0 mi SW 8.1 mph - N/A   Scattered Clouds
11:34 AM 58.5 °F - 46.0 °F 63% 29.81 in 10.0 mi WSW 9.2 mph - 0.01 in   Clear
11:53 AM 58.6 °F - 45.7 °F 62% 29.80 in 10.0 mi SW 9.2 mph - 0.01 in   Clear
11:59 AM 59.2 °F - 45.9 °F 61% 29.81 in 10.0 mi SW 15.0 mph - 0.01 in   Clear
12:14 PM 58.5 °F - 45.3 °F 62% 29.80 in 10.0 mi SW 10.4 mph - N/A   Clear
12:34 PM 58.6 °F - 45.3 °F 61% 29.79 in 10.0 mi SW 8.1 mph - N/A   Clear
12:53 PM 58.5 °F - 45.0 °F 61% 29.78 in 10.0 mi SW 8.1 mph - N/A   Mostly Cloudy
1:14 PM 58.5 °F - 45.5 °F 62% 29.78 in 10.0 mi WSW 4.6 mph - N/A Rain Light Rain
1:34 PM 59.0 °F - 45.7 °F 61% 29.79 in 10.0 mi West 13.8 mph - N/A   Overcast
1:53 PM 60.8 °F - 46.0 °F 58% 29.78 in 10.0 mi West 6.9 mph - N/A   Overcast
2:14 PM 61.7 °F - 46.0 °F 56% 29.77 in 10.0 mi West 5.8 mph - N/A   Mostly Cloudy
2:33 PM 61.0 °F - 43.5 °F 53% 29.77 in 10.0 mi West 8.1 mph - N/A   Mostly Cloudy
2:53 PM 61.7 °F - 43.3 °F 51% 29.77 in 10.0 mi NW 9.2 mph - N/A   Overcast
3:14 PM 61.7 °F - 43.5 °F 51% 29.77 in 10.0 mi NNW 9.2 mph - N/A   Overcast
3:33 PM 60.1 °F - 43.3 °F 54% 29.77 in 10.0 mi NW 10.4 mph - N/A   Overcast
3:54 PM 60.8 °F - 43.3 °F 53% 29.77 in 10.0 mi NW 11.5 mph - N/A   Overcast
4:13 PM 59.4 °F - 44.1 °F 57% 29.78 in 10.0 mi NW 9.2 mph - N/A   Mostly Cloudy
4:34 PM 58.3 °F - 44.4 °F 60% 29.79 in 10.0 mi NNW 12.7 mph - N/A   Mostly Cloudy
4:53 PM 58.5 °F - 45.3 °F 62% 29.79 in 10.0 mi NW 11.5 mph - N/A   Scattered Clouds
5:13 PM 57.4 °F - 44.1 °F 61% 29.80 in 10.0 mi NW 15.0 mph - N/A   Clear
5:34 PM 56.3 °F - 44.2 °F 64% 29.81 in 10.0 mi NNW 12.7 mph - N/A   Scattered Clouds
5:54 PM 55.0 °F - 44.2 °F 67% 29.83 in 10.0 mi NW 10.4 mph - N/A   Clear
6:34 PM 50.9 °F - 43.0 °F 74% 29.85 in 10.0 mi NNW 6.9 mph - N/A   Clear
6:53 PM 50.9 °F - 43.0 °F 74% 29.86 in 10.0 mi NNW 8.1 mph - N/A   Clear
7:13 PM 49.1 °F - 42.3 °F 77% 29.88 in 10.0 mi NNW 5.8 mph - N/A   Clear
7:34 PM 48.0 °F - 41.4 °F 78% 29.88 in 10.0 mi North 5.8 mph - N/A   Clear
7:54 PM 47.3 °F - 41.0 °F 79% 29.89 in 10.0 mi North 3.5 mph - N/A   Clear
8:34 PM 43.9 °F - 39.6 °F 85% 29.90 in 10.0 mi Calm Calm - N/A   Clear
8:53 PM 42.8 °F - 39.7 °F 89% 29.90 in 10.0 mi Calm Calm - N/A   Clear
9:14 PM 42.3 °F - 39.2 °F 89% 29.92 in 10.0 mi Calm Calm - N/A   Clear
9:34 PM 42.6 °F - 39.6 °F 89% 29.92 in 5.0 mi Calm Calm - N/A   Clear
9:53 PM 40.1 °F 38.0 °F 37.2 °F 89% 29.93 in 10.0 mi SW 3.5 mph - N/A   Clear
10:33 PM 38.1 °F 34.6 °F 35.6 °F 91% 29.93 in 7.0 mi SSW 4.6 mph - N/A   Clear
10:54 PM 39.0 °F 34.8 °F 37.0 °F 93% 29.93 in 7.0 mi South 5.8 mph - N/A   Clear
11:14 PM 36.5 °F 32.7 °F 34.3 °F 92% 29.93 in 7.0 mi SSW 4.6 mph - N/A   Clear
11:33 PM 37.0 °F 34.5 °F 35.2 °F 93% 29.93 in 5.0 mi SSW 3.5 mph - N/A   Clear